Theta_e
312 314 318 319 321 322 322 324 324 323 324 324 323 323 322 322 321 322 322 322 322 322 319 322 338 350 356 360 359 357 357 357 355 356 353 353 350 351 352 351 348 346 348 347
315 315 315 317 319 321 322 322 324 324 324 324 324 323 323 323 323 321 321 322 322 322 320 322 328 349 349 354 357 357 358 357 352 353 351 351 352 352 351 350 349 349 350 348
314 315 315 315 317 320 321 322 323 324 323 323 323 323 324 323 323 321 321 321 322 322 320 322 324 330 339 349 354 356 358 357 353 352 351 352 351 350 349 349 349 347 346 347
317 316 315 316 316 317 320 321 322 323 324 325 322 323 324 324 324 324 322 321 322 322 321 322 323 325 335 341 348 353 355 355 354 351 354 352 349 350 349 349 346 345 340 343
315 317 315 317 317 316 317 319 320 321 323 323 324 323 324 325 325 324 324 322 322 322 322 321 323 324 328 335 342 349 354 354 352 355 352 349 350 347 347 345 343 343 342 340
315 314 317 315 316 317 318 319 321 321 322 322 323 323 324 326 326 325 325 322 322 322 322 321 322 323 326 331 339 348 351 352 349 348 349 349 348 346 344 344 344 344 344 344
318 318 317 318 314 316 318 321 325 324 324 324 322 324 324 325 326 326 325 323 322 322 322 322 322 322 323 326 337 349 349 347 347 346 348 348 346 346 346 344 343 342 341 340
320 321 317 318 318 316 318 322 324 328 324 323 322 323 324 325 326 325 325 323 322 322 322 322 322 322 322 341 345 344 344 343 343 346 346 346 343 345 343 343 340 339 340 338
320 320 318 318 318 317 318 323 322 322 322 323 322 324 324 324 326 328 329 325 323 322 322 322 322 323 344 343 342 341 341 342 345 347 344 345 342 340 338 334 332 330 330 329
319 322 319 319 318 318 317 320 323 322 324 323 322 324 325 325 326 327 328 333 334 327 326 327 334 341 340 338 338 338 337 339 340 341 338 337 334 333 332 331 331 330 330 330
314 319 319 320 319 319 318 319 320 322 324 325 324 324 325 327 327 330 338 333 332 334 336 337 338 335 335 334 335 336 335 336 336 335 333 331 329 327 327 327 327 328 327 327
311 318 321 321 320 320 319 321 320 323 327 325 324 336 334 328 330 334 329 327 328 331 334 334 333 333 334 335 335 333 332 331 329 327 325 324 323 323 322 321 320 319 319 318
312 319 325 323 322 322 322 322 322 323 327 327 327 337 333 333 329 325 324 324 327 329 331 332 332 332 331 330 329 328 327 324 323 322 322 321 321 320 318 317 314 313 313 312
312 314 324 325 323 323 324 322 321 324 326 327 328 336 334 328 326 324 323 323 324 326 327 328 328 328 327 325 324 323 322 321 320 319 318 317 315 314 313 312 311 311 309 309
309 316 319 322 323 320 322 323 321 323 325 326 333 334 333 328 325 322 321 322 323 323 323 323 323 323 322 321 320 319 318 317 316 315 314 313 312 311 310 309 309 308 309 308
310 313 317 325 323 320 321 321 322 321 324 324 329 333 328 324 322 322 322 322 322 321 321 320 320 320 318 317 316 315 315 314 314 313 313 312 310 311 309 310 311 312 311 312
312 315 322 325 321 321 325 321 322 322 323 324 330 329 324 324 323 323 322 322 321 321 320 319 317 316 315 314 314 313 311 311 310 309 309 309 309 309 309 311 311 311 311 311
312 314 320 327 324 323 322 324 323 323 329 329 325 325 323 320 319 320 319 319 318 317 316 314 313 312 311 310 310 309 309 309 309 309 308 308 309 310 310 309 308 308 308 308
311 312 325 326 326 324 324 324 322 327 325 323 320 318 317 315 315 315 317 317 316 314 313 311 310 309 309 309 308 308 308 308 309 309 309 309 309 309 308 308 307 306 306 305
318 317 323 326 329 330 325 324 322 325 323 318 316 315 315 315 313 310 311 312 311 310 309 308 307 307 307 307 307 308 308 308 308 308 308 308 308 308 306 305 305 305 304 305
325 328 326 329 331 327 324 324 321 325 326 319 318 318 318 316 309 306 306 305 305 305 305 306 307 306 306 306 306 306 306 307 307 307 307 307 306 306 305 304 305 305 306 304
322 326 329 330 331 331 324 327 325 329 323 322 322 311 306 305 304 303 302 301 301 302 302 304 305 304 304 305 305 304 305 305 306 306 305 304 304 304 304 303 302 303 305 305
325 322 324 320 321 321 326 323 326 324 323 319 313 310 313 304 302 302 300 300 300 302 302 303 303 303 302 302 303 303 302 303 304 303 303 303 302 302 301 301 300 299 301 305
318 316 319 319 317 325 325 324 322 321 320 317 312 310 307 303 301 300 300 300 302 303 303 303 303 303 302 301 301 302 301 301 303 304 302 302 303 302 302 301 303 303 303 304
310 313 315 316 316 319 320 319 318 318 317 315 312 308 303 301 301 300 301 302 303 303 302 303 303 302 301 300 300 300 300 300 301 302 300 302 302 301 300 302 301 301 302 303
305 311 317 314 314 317 316 313 310 309 309 306 303 301 300 300 300 301 302 302 302 302 302 302 302 301 300 300 299 299 299 299 301 301 300 302 301 301 300 297 298 300 299 300
Wind_Speed
31 18 24 36 35 30 26 26 26 25 21 27 25 23 25 22 17 21 27 32 33 32 31 30 26 26 27 29 26 25 26 26 26 28 28 26 18 17 17 17 21 21 16 15
21 27 33 28 29 30 29 29 25 21 24 16 19 21 24 25 22 24 26 26 29 29 32 32 27 26 25 24 23 23 26 29 28 25 22 17 15 14 13 12 13 12 13 16
27 25 28 28 28 27 31 28 27 18 14 16 17 21 23 24 25 26 24 27 27 27 32 33 30 26 25 24 25 25 26 28 26 23 19 20 16 11 11 12 15 14 13 12
20 25 25 29 29 30 27 29 25 24 15 18 19 16 21 21 25 24 29 26 27 30 29 31 31 26 26 24 23 22 25 24 22 19 24 22 14 10 10 12 9 11 14 11
23 26 24 20 26 28 30 22 25 26 20 17 24 16 20 28 27 28 26 33 31 28 31 35 32 28 27 24 22 21 22 22 24 23 19 17 14 11 8 8 12 9 10 10
20 24 13 21 23 23 24 23 24 26 17 17 19 18 16 18 24 24 25 33 33 31 30 31 34 31 27 23 22 22 26 25 24 24 19 17 14 11 10 9 6 6 7 6
26 23 17 20 24 23 24 21 10 14 17 14 24 21 17 22 19 23 22 30 31 31 31 31 33 32 29 27 26 24 27 23 20 20 19 19 17 13 10 7 5 5 1 5
3 9 24 19 25 27 28 25 15 17 23 25 26 27 21 15 11 10 18 29 31 31 30 31 32 31 29 24 23 21 21 20 20 22 19 17 15 12 11 11 12 9 7 8
5 8 6 22 22 26 28 23 27 17 22 18 23 21 24 14 8 5 3 13 30 30 30 29 28 27 26 22 20 18 21 26 25 24 24 25 19 16 13 12 8 9 6 3
7 11 9 15 24 29 24 26 22 16 17 19 23 21 14 21 16 12 15 10 11 12 18 22 24 26 23 20 21 22 22 23 23 20 18 17 15 14 12 10 7 5 5 6
7 7 5 13 18 23 16 20 23 21 15 15 17 21 16 21 18 16 17 15 15 18 25 27 27 26 24 23 25 25 24 25 23 21 20 20 18 16 13 9 6 4 4 2
4 4 8 18 18 20 17 22 29 14 23 14 12 7 14 22 19 21 17 19 17 20 26 28 31 33 32 31 28 27 25 24 22 20 20 18 15 13 9 6 4 3 1 3
4 4 4 3 2 17 28 27 28 22 19 14 13 7 11 23 21 22 20 18 23 28 31 32 32 31 31 31 28 26 23 22 20 18 17 14 11 7 4 2 1 2 5 7
4 4 11 6 15 16 8 19 27 25 8 14 2 14 14 16 19 16 20 22 27 29 33 34 33 31 30 27 26 24 23 20 19 17 15 12 9 7 5 5 6 8 8 10
1 6 11 20 10 18 16 20 23 20 14 4 19 17 17 18 19 18 25 27 30 30 30 32 32 30 28 27 24 23 21 20 18 16 15 12 9 6 5 6 7 8 9 11
4 4 9 16 16 21 21 22 25 23 21 5 14 22 19 23 27 23 25 29 30 31 32 31 30 27 25 24 22 21 19 18 16 15 13 10 9 8 10 10 9 10 12 11
5 5 5 12 16 13 18 22 22 11 17 10 10 17 23 20 17 20 27 29 30 31 31 29 27 24 23 22 20 20 18 16 15 13 11 10 9 8 10 10 10 11 10 9
6 6 2 9 14 9 7 16 18 13 17 25 14 21 19 22 29 28 27 31 30 30 28 26 25 23 22 21 20 19 17 15 14 13 12 12 12 11 11 11 11 11 10 10
10 3 3 3 1 12 13 13 14 9 12 16 20 22 28 37 39 25 25 27 28 28 26 25 23 22 21 20 18 17 17 15 14 14 14 14 13 12 11 11 11 12 12 12
6 10 2 5 5 6 11 14 18 18 8 17 21 22 24 31 15 8 25 26 27 26 24 24 22 21 20 18 17 16 16 15 15 14 13 12 12 11 11 11 11 11 12 12
6 3 3 6 7 7 7 21 19 5 6 18 25 27 23 12 14 26 26 26 24 24 24 22 21 20 19 17 15 16 16 16 13 12 11 11 11 11 10 10 11 11 12 11
5 7 7 7 5 7 16 6 15 13 34 29 23 31 38 41 33 29 26 25 24 23 22 21 20 20 18 16 15 16 16 12 10 11 11 11 10 9 9 10 10 11 12 11
3 6 3 6 3 11 6 21 22 28 37 30 33 34 40 40 33 27 27 24 23 22 21 20 20 20 18 17 15 15 12 11 9 10 11 11 10 9 10 11 11 11 11 12
8 16 4 1 10 9 27 30 30 30 32 35 39 37 39 39 32 31 26 25 24 22 20 18 18 18 18 16 15 14 11 10 9 10 10 8 10 10 11 13 13 14 14 15
6 8 5 2 5 20 24 28 28 31 38 39 35 34 35 38 36 29 28 25 22 20 18 17 17 16 15 14 15 13 11 9 9 9 9 7 9 11 11 15 16 16 16 16
9 5 3 3 9 15 18 29 32 39 39 36 42 40 35 32 32 29 26 23 21 20 17 16 15 15 14 14 13 11 10 9 9 8 9 10 15 9 9 9 13 15 14 15
Wind_Direction
210 222 217 217 221 231 240 228 231 227 229 224 212 238 220 240 198 219 212 217 223 221 212 206 203 196 191 191 195 194 195 194 210 197 200 211 206 206 208 220 229 226 226 229
212 219 228 229 225 231 240 242 246 233 218 225 207 232 242 218 221 213 215 213 210 213 208 199 195 193 192 196 194 200 198 202 208 202 197 202 199 205 212 218 215 215 225 234
224 215 229 233 233 226 225 228 233 236 194 212 230 237 228 233 216 210 216 211 213 203 206 198 184 189 189 189 189 193 206 210 209 208 193 199 188 201 194 203 213 221 226 236
230 255 229 212 228 222 229 218 239 238 228 213 202 237 223 221 222 218 210 209 203 208 205 202 187 186 188 190 189 186 209 216 206 206 189 188 185 189 206 216 233 231 233 234
224 225 240 213 211 222 230 229 215 235 232 231 202 219 248 199 216 210 210 211 210 199 201 204 197 194 191 189 185 181 199 203 192 186 179 173 181 199 201 216 227 213 237 224
277 282 302 261 243 205 220 221 216 226 213 225 233 198 225 195 213 213 199 207 206 204 200 201 198 193 189 185 180 176 189 198 190 188 170 166 185 173 193 197 208 230 249 255
232 212 231 243 229 218 210 200 193 208 216 221 215 227 232 210 185 206 195 195 202 199 198 194 197 193 192 189 178 171 191 187 178 171 178 168 173 162 168 165 171 202 203 206
228 226 219 203 227 205 196 200 200 189 196 212 223 215 208 242 151 172 184 187 196 194 193 190 192 190 193 157 157 161 177 172 163 175 162 163 160 158 161 147 186 172 157 208
290 236 183 234 204 229 187 206 210 215 200 216 209 215 217 170 140 146 234 181 185 188 191 188 179 184 144 143 150 161 168 164 166 157 159 153 149 152 157 166 166 175 184 244
307 292 220 193 195 218 207 196 215 236 211 204 199 198 186 184 164 174 183 103 71 160 184 152 136 131 131 144 154 162 162 151 148 137 140 138 137 141 141 151 166 179 213 231
299 272 294 242 207 202 188 199 212 224 229 207 203 192 175 182 166 163 110 95 86 92 102 108 115 121 134 141 145 140 135 129 125 125 125 122 122 124 127 128 128 131 142 210
240 299 231 231 198 198 208 207 207 214 218 255 207 103 346 172 133 107 103 98 98 100 109 114 119 127 131 130 127 127 126 124 122 121 118 121 129 130 136 139 142 147 224 276
328 252 176 253 240 215 200 187 215 210 233 228 207 130 67 94 103 100 101 107 111 110 113 118 124 127 125 123 123 123 121 119 116 113 118 122 121 118 109 96 11 306 305 295
321 267 269 236 175 194 156 214 201 204 221 235 132 145 120 111 100 106 117 113 110 112 114 117 119 120 118 119 119 117 113 111 107 103 102 103 100 89 60 21 351 327 327 321
214 270 257 249 261 184 189 187 216 170 221 276 136 148 138 125 115 125 121 119 114 114 112 112 113 116 118 116 114 111 107 103 100 98 94 90 80 60 23 356 347 329 323 324
210 256 251 245 220 171 198 201 203 194 209 210 214 134 125 112 116 124 123 118 114 114 112 112 113 115 113 110 107 101 96 92 88 85 78 68 56 41 13 13 2 349 349 348
282 319 360 133 131 144 194 196 215 114 238 296 162 115 124 119 122 122 124 118 117 116 115 112 112 110 108 104 101 97 94 91 85 79 72 62 48 28 17 14 2 358 358 344
286 302 316 134 126 149 202 214 229 152 74 98 109 121 114 106 101 103 107 111 109 110 113 111 109 105 100 99 94 91 88 84 78 69 58 45 39 28 23 17 9 8 358 349
215 286 41 131 296 138 160 185 164 107 96 95 116 109 109 104 94 85 104 109 112 112 110 108 104 100 96 93 92 88 82 77 71 62 55 46 41 35 28 22 12 4 2 348
210 226 256 173 162 141 160 153 134 131 78 114 126 125 122 118 100 100 110 111 109 108 106 103 98 93 89 85 85 85 81 75 66 58 54 49 47 36 30 29 23 17 8 1
307 269 197 177 82 93 232 164 150 180 126 158 140 137 138 108 109 120 115 109 106 106 102 99 92 88 84 83 86 83 76 68 64 60 55 51 52 35 32 27 16 4 2 3
318 334 12 347 93 82 354 277 175 120 142 152 145 111 106 111 114 113 113 108 102 101 97 96 96 87 81 77 76 73 69 64 65 62 59 53 47 44 30 26 22 9 20 27
357 30 42 15 29 292 62 113 103 130 133 123 119 124 125 116 121 122 115 110 105 103 100 95 89 84 75 69 69 69 66 66 63 67 60 51 45 48 42 34 30 27 29 33
351 21 43 328 341 58 91 98 107 120 122 123 123 126 126 125 122 117 114 110 106 102 98 95 89 82 74 67 64 63 63 64 68 77 63 66 44 44 42 35 35 34 39 39
343 315 39 60 360 53 77 98 111 112 115 114 114 121 123 122 114 114 112 108 104 102 96 91 89 84 79 72 64 59 54 65 66 75 66 54 76 46 21 27 34 27 30 33
330 323 347 38 11 93 97 108 112 108 112 117 117 112 107 108 115 111 107 106 104 99 96 94 91 87 77 69 65 60 54 54 72 78 77 65 65 51 48 40 17 24 26 28